time_stamp(utc),avg(mph),gust(mph),direction(deg),12m_air_temp(f),sonic_u(cm/s),sonic_v(cm/s),sonic_w(cm/s),pressure,2m_air_temp(f),pyranometer(W/m^2)
"2020-02-02 00:00:53+00",3.0,3.0,,41.5,-439,644,-302,1007.8,41.3,0
"2020-02-02 00:05:53+00",3.7,3.7,,41.4,-876,1378,-691,1007.64,41.2,0
"2020-02-02 00:10:53+00",3.7,3.7,,41.4,-809,1274,-630,1007.52,41.1,0
"2020-02-02 00:15:53+00",3.4,3.4,,41.4,-459,696,-321,1007.44,41.1,0
"2020-02-02 00:20:53+00",4.1,5.1,,41.2,-440,667,-282,1007.36,41.1,0
"2020-02-02 00:25:53+00",4.4,4.4,,41.1,-425,675,-274,1007.23,41,0
"2020-02-02 00:30:53+00",4.8,4.8,,41.1,-517,831,-349,1007.3,40.9,0
"2020-02-02 00:35:53+00",4.8,4.8,,41,-355,527,-198,1007.29,40.8,0
"2020-02-02 00:40:53+00",4.9,4.9,,41,-527,844,-358,1007.25,40.8,0
"2020-02-02 00:45:53+00",5.2,5.2,,40.9,-471,730,-293,1007.33,40.7,0
"2020-02-02 00:50:53+00",5.0,6.0,,40.8,-329,420,-153,1007.33,40.7,0
"2020-02-02 00:55:53+00",5.2,5.2,,40.8,-298,322,-101,1007.31,40.6,0
"2020-02-02 01:00:53+00",6.3,6.3,,40.9,-306,337,-87,1007.5,40.6,0
"2020-02-02 01:05:53+00",6.0,7.0,,40.9,-294,313,-82,1007.3,40.6,0
"2020-02-02 01:10:53+00",6.2,7.2,,40.9,-362,402,-131,1007.36,40.6,0
"2020-02-02 01:15:53+00",8.3,10.3,,40.7,-479,539,-182,1007.35,40.6,0
"2020-02-02 01:20:53+00",7.2,8.2,,40.9,-422,528,-173,1007.34,40.6,0
"2020-02-02 01:25:53+00",7.0,7.0,,40.9,-631,978,-410,1007.23,40.6,0
"2020-02-02 01:30:53+00",6.7,7.7,,40.8,-150,294,-14,1007.21,40.6,0
"2020-02-02 01:35:53+00",5.4,7.4,,40.8,-335,530,-176,1007.15,40.5,0
"2020-02-02 01:40:53+00",5.0,6.0,,40.8,-107,180,9,1007.06,40.5,0
"2020-02-02 01:45:53+00",5.0,6.0,,40.7,-122,181,15,1007.04,40.5,0
"2020-02-02 01:50:53+00",4.9,5.9,,40.6,-128,160,19,1006.96,40.4,0
"2020-02-02 01:55:53+00",5.0,5.0,,40.5,-146,154,15,1006.99,40.4,0
"2020-02-02 02:00:53+00",4.2,5.2,,40.5,-111,138,11,1006.87,40.3,0
"2020-02-02 02:05:53+00",4.5,4.5,,40.3,-130,139,14,1006.86,40.3,0
"2020-02-02 02:10:53+00",3.5,3.5,,40.3,-125,85,8,1006.76,40.2,0
"2020-02-02 02:15:53+00",3.0,3.0,,40.3,-113,53,9,1006.68,40.2,0
"2020-02-02 02:20:53+00",3.2,3.2,,40.2,-132,15,10,1006.72,40.1,0
"2020-02-02 02:25:53+00",4.1,5.1,,40.2,-170,-26,9,1006.73,40.1,0
"2020-02-02 02:30:53+00",4.7,4.7,,40.1,-203,-11,14,1006.69,40.1,0
"2020-02-02 02:35:53+00",5.6,6.6,,40,-243,-2,13,1006.73,40.1,0
"2020-02-02 02:40:53+00",5.5,6.5,,39.9,-243,38,20,1006.65,40,0
"2020-02-02 02:45:53+00",6.3,7.3,,39.8,-284,32,13,1006.62,39.9,0
"2020-02-02 02:50:53+00",6.3,7.3,,39.7,-275,46,13,1006.47,39.8,0
"2020-02-02 02:55:53+00",5.5,6.5,,39.7,-240,12,12,1006.48,39.8,0
"2020-02-02 03:00:53+00",4.5,5.5,,39.7,-194,5,14,1006.34,39.8,0
"2020-02-02 03:05:53+00",5.7,6.7,,39.6,-256,36,17,1006.3,39.7,0
"2020-02-02 03:10:53+00",5.9,6.9,,39.7,-256,45,12,1006.35,39.7,0
"2020-02-02 03:15:53+00",5.0,6.0,,39.7,-223,47,14,1006.38,39.7,0
"2020-02-02 03:20:53+00",5.6,6.6,,39.8,-254,35,10,1006.38,39.7,0
"2020-02-02 03:25:53+00",6.4,7.4,,39.8,-282,56,21,1006.44,39.7,0
"2020-02-02 03:30:53+00",5.9,6.9,,39.9,-256,75,22,1006.33,39.7,0
"2020-02-02 03:35:53+00",5.6,6.6,,39.9,-239,60,22,1006.24,39.7,0
"2020-02-02 03:40:53+00",5.2,6.2,,39.9,-225,60,18,1006.17,39.7,0
"2020-02-02 03:45:53+00",4.7,5.7,,39.9,-202,63,20,1006.07,39.7,0
"2020-02-02 03:50:53+00",6.0,7.0,,39.9,-263,73,15,1006.06,39.7,0
"2020-02-02 03:55:53+00",5.3,6.3,,39.9,-233,64,14,1006.09,39.7,0
"2020-02-02 04:00:53+00",5.5,7.5,,39.9,-235,67,18,1006.01,39.7,0
"2020-02-02 04:05:53+00",5.7,5.7,,39.9,-240,72,17,1006,39.7,0
"2020-02-02 04:10:53+00",5.8,6.8,,39.9,-253,75,14,1005.92,39.7,0
"2020-02-02 04:15:53+00",5.5,6.5,,39.9,-235,69,22,1005.78,39.7,0
"2020-02-02 04:20:53+00",5.3,6.3,,39.9,-226,62,18,1005.69,39.7,0
"2020-02-02 04:25:53+00",4.9,5.9,,39.8,-216,40,17,1005.55,39.7,0
"2020-02-02 04:30:53+00",5.9,6.9,,39.8,-258,42,12,1005.48,39.7,0
"2020-02-02 04:35:53+00",5.6,6.6,,39.8,-245,52,13,1005.59,39.6,0
"2020-02-02 04:40:53+00",6.2,7.2,,39.8,-268,70,20,1005.59,39.6,0
"2020-02-02 04:45:53+00",5.5,7.5,,39.8,-242,66,28,1005.52,39.6,0
"2020-02-02 04:50:53+00",6.8,7.8,,39.8,-307,59,15,1005.53,39.6,0
"2020-02-02 04:55:53+00",7.3,8.3,,39.8,-318,56,8,1005.4,39.6,0
"2020-02-02 05:00:53+00",6.1,7.1,,39.8,-268,24,19,1005.39,39.6,0
"2020-02-02 05:05:53+00",7.1,8.1,,39.8,-329,18,8,1005.36,39.6,0
"2020-02-02 05:10:53+00",6.9,8.9,,39.7,-302,23,17,1005.25,39.5,0
"2020-02-02 05:15:53+00",7.2,8.2,,39.7,-322,43,4,1005.25,39.5,0
"2020-02-02 05:20:53+00",6.9,8.9,,39.8,-300,81,24,1005.24,39.5,0
"2020-02-02 05:25:53+00",7.5,8.5,,39.7,-343,55,18,1005.21,39.6,0
"2020-02-02 05:30:53+00",8.3,9.3,,39.7,-379,127,16,1005.16,39.5,0
"2020-02-02 05:35:53+00",8.6,9.6,,39.7,-374,130,30,1005.16,39.6,0
"2020-02-02 05:40:53+00",9.8,11.8,,39.7,-413,151,37,1005.11,39.5,0
"2020-02-02 05:45:53+00",10.9,11.9,,39.6,-469,164,36,1005.1,39.5,0
"2020-02-02 05:50:53+00",9.5,11.5,,39.6,-411,153,38,1005,39.4,0
"2020-02-02 05:55:53+00",9.7,12.7,,39.6,-416,171,29,1004.95,39.4,0
"2020-02-02 06:00:53+00",10.6,12.6,,39.4,-436,206,28,1004.99,39.3,0
"2020-02-02 06:05:53+00",11.1,12.1,,39.4,-483,214,30,1004.92,39.2,0
"2020-02-02 06:10:53+00",11.0,12.0,,39.4,-449,218,26,1004.84,39.2,0
"2020-02-02 06:15:53+00",11.3,13.3,,39.4,-466,235,38,1004.92,39.1,0
"2020-02-02 06:20:53+00",9.3,11.3,,39.3,-404,157,43,1004.84,39.1,0
"2020-02-02 06:25:53+00",11.9,13.9,,39.3,-525,176,26,1004.91,39.1,0
"2020-02-02 06:30:53+00",11.3,12.3,,39.3,-467,198,29,1004.81,39.1,0
"2020-02-02 06:35:53+00",12.4,15.4,,39.2,-535,226,40,1004.88,39.1,0
"2020-02-02 06:40:53+00",10.8,13.8,,39.3,-524,114,55,1004.86,39,0
"2020-02-02 06:45:53+00",12.4,13.4,,39.3,-571,175,57,1004.86,39,0
"2020-02-02 06:50:53+00",13.8,15.8,,39.3,-614,131,31,1004.79,38.9,0
"2020-02-02 06:55:53+00",12.3,14.3,,39.3,-561,63,23,1004.63,38.8,0
"2020-02-02 07:00:53+00",10.2,12.2,,39.2,-460,21,24,1004.55,38.8,0
"2020-02-02 07:05:53+00",11.0,12.0,,39.2,-493,44,21,1004.36,38.7,0
"2020-02-02 07:10:53+00",10.0,11.0,,39.2,-443,26,30,1004.3,38.6,0
"2020-02-02 07:15:53+00",9.4,11.4,,39.1,-402,9,22,1004.22,38.6,0
"2020-02-02 07:20:53+00",8.3,10.3,,39.1,-358,-42,22,1004.16,38.6,0
"2020-02-02 07:25:53+00",8.8,9.8,,39.1,-384,-31,24,1004.14,38.6,0
"2020-02-02 07:30:53+00",8.6,9.6,,39.1,-379,-3,16,1004.06,38.6,0
"2020-02-02 07:35:53+00",9.4,11.4,,39.1,-416,-22,29,1004.07,38.7,0
"2020-02-02 07:40:53+00",11.0,13.0,,39,-494,5,19,1004.04,38.7,0
"2020-02-02 07:45:53+00",12.0,14.0,,39,-545,38,19,1004.03,38.5,0
"2020-02-02 07:50:53+00",11.6,12.6,,38.9,-516,75,21,1003.95,38.5,0
"2020-02-02 07:55:53+00",11.3,13.3,,38.9,-516,24,39,1003.86,38.5,0
"2020-02-02 08:00:53+00",9.1,10.1,,38.9,-406,57,30,1003.81,38.4,0
"2020-02-02 08:05:53+00",10.9,11.9,,39,-482,87,35,1003.71,38.5,0
"2020-02-02 08:10:53+00",12.2,15.2,,39,-532,110,28,1003.71,38.5,0
"2020-02-02 08:15:53+00",12.7,14.7,,38.9,-569,92,30,1003.75,38.5,0
"2020-02-02 08:20:53+00",12.1,13.1,,38.9,-534,37,23,1003.62,38.4,0
"2020-02-02 08:25:53+00",11.9,13.9,,38.8,-521,45,26,1003.54,38.4,0
"2020-02-02 08:30:53+00",10.0,11.0,,38.8,-434,19,41,1003.68,38.4,0
"2020-02-02 08:35:53+00",11.6,12.6,,38.7,-514,51,39,1003.7,38.3,0
"2020-02-02 08:40:53+00",12.2,13.2,,38.6,-526,58,34,1003.69,38.2,0
"2020-02-02 08:45:53+00",10.5,13.5,,38.5,-453,21,26,1003.47,38.1,0
"2020-02-02 08:50:53+00",10.8,11.8,,38.5,-470,50,30,1003.49,38,0
"2020-02-02 08:55:53+00",10.4,11.4,,38.5,-455,70,39,1003.42,37.9,0
"2020-02-02 09:00:53+00",11.9,13.9,,38.5,-512,128,27,1003.32,38,0
"2020-02-02 09:05:53+00",11.8,13.8,,38.5,-515,105,30,1003.28,38,0
"2020-02-02 09:10:53+00",11.7,13.7,,38.4,-509,97,35,1003.39,38,0
"2020-02-02 09:15:53+00",11.6,12.6,,38.4,-509,97,32,1003.37,37.9,0
"2020-02-02 09:20:53+00",11.5,13.5,,38.3,-507,66,19,1003.35,37.9,0
"2020-02-02 09:25:53+00",10.5,11.5,,38.1,-460,53,40,1003.41,37.8,0
"2020-02-02 09:30:53+00",12.3,13.3,,38.2,-541,96,36,1003.35,37.7,0
"2020-02-02 09:35:53+00",13.1,14.1,,38.3,-573,121,35,1003.39,37.9,0
"2020-02-02 09:40:53+00",12.6,13.6,,38.3,-548,108,41,1003.34,38,0
"2020-02-02 09:45:53+00",13.9,14.9,,38.4,-602,114,19,1003.41,38,0
"2020-02-02 09:50:53+00",12.6,13.6,,38.4,-543,150,60,1003.41,38,0
"2020-02-02 09:55:53+00",12.1,14.1,,38.4,-527,150,56,1003.41,38,0
"2020-02-02 10:00:53+00",15.2,17.2,,38.4,-642,172,49,1003.42,38,0
"2020-02-02 10:05:53+00",13.3,15.3,,38.4,-562,181,59,1003.42,37.9,0
"2020-02-02 10:10:53+00",13.7,15.7,,38.4,-636,261,-7,1003.45,37.8,0
"2020-02-02 10:15:53+00",14.9,17.9,,38.5,-1526,1887,-827,1003.46,37.7,0
"2020-02-02 10:35:53+00",14.5,15.5,,38.1,-1444,1574,-731,1003.61,37.5,0
"2020-02-02 10:40:53+00",13.2,15.2,,38.1,-566,174,75,1003.7,37.4,0
"2020-02-02 10:45:53+00",14.0,15.0,,38,-616,172,52,1003.76,37.4,0
"2020-02-02 10:50:53+00",15.9,18.9,,38,-687,244,49,1003.75,37.3,0
"2020-02-02 10:55:53+00",16.4,19.4,,37.9,-710,264,49,1003.81,37.3,0
"2020-02-02 11:00:53+00",15.7,18.7,,37.9,-681,187,61,1003.85,37.3,0
"2020-02-02 11:05:53+00",15.3,16.3,,37.7,-667,194,56,1003.88,37.3,0
"2020-02-02 11:10:53+00",16.7,18.7,,37.7,-730,211,62,1003.98,37.2,0
"2020-02-02 11:15:53+00",16.4,18.4,,37.6,-712,205,53,1004.02,37.2,0
"2020-02-02 11:20:53+00",16.0,18.0,,37.5,-684,247,42,1004.03,37.1,0
"2020-02-02 11:25:53+00",13.8,15.8,,37.4,-602,180,55,1004.07,37,0
"2020-02-02 11:30:53+00",12.8,14.8,,37.3,-558,170,47,1004.15,37,0
"2020-02-02 11:35:53+00",15.1,17.1,,37.3,-665,183,54,1004.28,36.9,0
"2020-02-02 11:40:53+00",15.4,16.4,,37.2,-655,253,44,1004.3,36.7,0
"2020-02-02 11:45:53+00",14.9,15.9,,37.1,-631,240,43,1004.36,36.7,0
"2020-02-02 11:50:53+00",12.7,15.7,,37,-559,172,48,1004.37,36.5,0
"2020-02-02 11:55:53+00",15.7,16.7,,37,-637,298,37,1004.43,36.5,0
"2020-02-02 12:00:53+00",13.2,16.2,,37,-551,212,60,1004.53,36.3,0
"2020-02-02 12:05:53+00",15.2,17.2,,37,-645,253,57,1004.55,36.3,0
"2020-02-02 12:15:53+00",16.2,18.2,,37,1199,-2897,1802,1004.55,36.3,0
"2020-02-02 12:25:53+00",14.8,15.8,,36.7,1749,-3819,2317,1004.65,36.3,0
"2020-02-02 12:30:53+00",13.1,15.1,,36.7,1259,-2825,1786,1004.61,36.4,0
"2020-02-02 12:35:53+00",13.5,14.5,,36.6,1411,-3232,1955,1004.57,36.4,0
"2020-02-02 12:40:53+00",13.5,14.5,,36.6,544,-1700,1117,1004.63,36.5,0
"2020-02-02 12:45:53+00",14.3,16.3,,36.6,-1865,2322,-1134,1004.49,36.6,0
"2020-02-02 12:50:53+00",13.2,16.2,,36.6,-1493,1795,-845,1004.56,36.8,0
"2020-02-02 12:55:53+00",14.3,16.3,,36.6,-1910,2502,-1199,1004.52,36.9,0
"2020-02-02 13:00:53+00",14.3,16.3,,36.6,-1897,2346,-1176,1004.52,37.1,0
"2020-02-02 13:05:53+00",13.5,15.5,,36.7,-1492,1695,-843,1004.48,37.4,0
"2020-02-02 13:10:53+00",10.8,12.8,,36.7,-723,547,-232,1004.45,37.6,0
"2020-02-02 13:15:53+00",12.1,14.1,,36.7,-1012,980,-447,1004.41,37.8,0
"2020-02-02 13:20:53+00",13.9,15.9,,36.9,-1526,1686,-816,1004.46,38,0
"2020-02-02 13:25:53+00",13.1,16.1,,37,-1072,1067,-472,1004.49,38.2,0
"2020-02-02 13:30:53+00",12.9,14.9,,37.1,-1093,997,-484,1004.61,38.5,0
"2020-02-02 13:35:53+00",13.4,15.4,,37.3,-779,472,-185,1004.57,38.8,0
"2020-02-02 13:40:53+00",14.5,16.5,,37.3,-921,621,-271,1004.53,38.9,0.6
"2020-02-02 13:45:53+00",14.6,16.6,,37.5,-672,120,23,1004.51,39.2,1
"2020-02-02 13:50:53+00",14.1,16.1,,37.7,-628,69,32,1004.59,39.4,0.9
"2020-02-02 13:55:53+00",14.8,16.8,,37.8,-642,171,48,1004.69,39.7,9.2
"2020-02-02 14:00:53+00",14.8,16.8,,38.1,-612,242,30,1004.7,39.9,14.6
"2020-02-02 14:05:53+00",16.7,18.7,,38.4,-681,309,45,1004.55,40.1,28
"2020-02-02 14:10:53+00",17.1,19.1,,38.6,-718,280,71,1004.59,40.2,35.6
"2020-02-02 14:15:53+00",17.1,19.1,,38.7,-685,341,33,1004.56,40.4,43.5
"2020-02-02 14:20:53+00",14.6,17.6,,39,-620,239,41,1004.52,40.6,46.8
"2020-02-02 14:25:53+00",13.8,15.8,,39.1,-592,186,40,1004.37,40.9,49.8
"2020-02-02 14:30:53+00",14.5,17.5,,39.1,-627,210,45,1004.38,41.1,54.8
"2020-02-02 14:35:53+00",14.4,16.4,,39.2,-618,216,34,1004.38,41.3,66.5
"2020-02-02 14:40:53+00",13.8,15.8,,39.3,-580,246,40,1004.37,41.5,72.6
"2020-02-02 14:45:53+00",13.2,16.2,,39.8,-532,270,39,1004.2,41.7,83.3
"2020-02-02 14:50:53+00",13.9,15.9,,39.6,-571,244,23,1004.19,41.6,23
"2020-02-02 14:55:53+00",14.4,16.4,,39.8,-618,214,34,1004.18,41.7,92.9
"2020-02-02 15:00:53+00",15.2,17.2,,39.8,-642,254,48,1004.18,41.8,94
"2020-02-02 15:05:53+00",14.3,17.3,,40,-600,240,66,1004.21,41.9,106.7
"2020-02-02 15:10:53+00",17.2,19.2,,40.2,-711,343,39,1004.12,42.1,111.3
"2020-02-02 15:15:53+00",13.9,16.9,,40.6,-581,261,75,1004.02,42.4,112.1
"2020-02-02 15:20:53+00",14.4,18.4,,40.7,-585,279,67,1004.1,42.5,122.7
"2020-02-02 15:25:53+00",15.2,19.2,,40.8,-634,237,42,1004.11,42.9,144.4
"2020-02-02 15:30:53+00",15.9,19.9,,41.3,-646,334,38,1004.05,43.4,13
"2020-02-02 15:35:53+00",15.8,17.8,,41.3,-664,258,36,1004.06,43.4,0
"2020-02-02 15:40:53+00",15.2,18.2,,41.3,-654,225,38,1004.02,43.4,123.1
"2020-02-02 15:45:53+00",18.0,21.0,,41.5,-725,371,35,1004.03,43.3,44.9
"2020-02-02 15:50:53+00",19.1,22.1,,41.6,-769,402,60,1004.02,43,0
"2020-02-02 15:55:53+00",16.8,19.8,,41.5,-666,347,60,1004.04,42.6,0
"2020-02-02 16:00:53+00",13.9,16.9,,41.5,-550,269,54,1004.09,42.4,0
"2020-02-02 16:05:53+00",16.8,19.8,,41.6,-696,355,40,1004.06,42.2,0
"2020-02-02 16:10:53+00",15.1,19.1,,41.6,-621,240,54,1004.05,42.3,0
"2020-02-02 16:15:53+00",22.4,24.4,,41.7,-965,292,65,1003.8,42.3,0
"2020-02-02 16:20:53+00",18.5,20.5,,41.8,-800,270,75,1003.7,42.5,22.6
"2020-02-02 16:25:53+00",20.0,25.0,,42.2,-840,361,66,1003.64,43,141.1
"2020-02-02 16:30:53+00",18.2,22.2,,42.4,-727,386,94,1003.51,43.7,84.5
"2020-02-02 16:35:53+00",19.3,21.3,,42.1,-800,362,39,1003.43,43.8,67.8
"2020-02-02 16:40:53+00",17.3,19.3,,42.5,-720,297,54,1003.32,44,2
"2020-02-02 16:45:53+00",21.2,26.2,,42.5,-820,457,84,1003.09,43.8,3.2
"2020-02-02 16:50:53+00",19.6,22.6,,42.4,-765,418,62,1003.16,43.4,7.4
"2020-02-02 16:55:53+00",17.4,21.4,,42.7,-706,356,59,1003.08,43.7,1.2
"2020-02-02 17:00:53+00",19.0,23.0,,42.6,-791,326,74,1002.96,43.8,14.3
"2020-02-02 17:05:53+00",19.4,21.4,,42.7,-815,344,57,1002.89,43.8,4.4
"2020-02-02 17:10:53+00",21.1,25.1,,42.8,-857,423,45,1002.6,43.8,0
"2020-02-02 17:15:53+00",20.5,22.5,,42.7,-806,463,65,1002.53,43.7,2
"2020-02-02 17:20:53+00",15.5,18.5,,42.8,-656,268,44,1002.44,43.8,4.1
"2020-02-02 17:25:53+00",17.5,19.5,,42.8,-724,292,76,1002.29,43.7,0
"2020-02-02 17:30:53+00",15.2,17.2,,42.7,-620,302,58,1002.09,43.6,0
"2020-02-02 17:35:53+00",14.2,15.2,,42.7,-608,225,58,1002.01,43.6,0
"2020-02-02 17:40:53+00",15.8,17.8,,42.8,-624,340,42,1001.89,43.6,0
"2020-02-02 17:45:53+00",14.6,16.6,,42.8,-597,280,58,1001.78,43.5,0
"2020-02-02 17:50:53+00",14.5,16.5,,42.8,-606,276,30,1001.73,43.4,0
"2020-02-02 17:55:53+00",16.9,18.9,,42.9,-718,250,60,1001.61,43.3,0
"2020-02-02 18:00:53+00",13.6,16.6,,42.8,-594,201,54,1001.48,43.3,0
"2020-02-02 18:05:53+00",16.2,17.2,,43.1,-707,199,54,1001.3,43.3,0
"2020-02-02 18:10:53+00",13.2,16.2,,43.2,-580,138,50,1001.25,43.5,0
"2020-02-02 18:15:53+00",16.2,17.2,,43,-729,103,40,1001.16,43.5,0
"2020-02-02 18:20:53+00",13.4,15.4,,43,-602,90,39,1001.23,43.6,0
"2020-02-02 18:25:53+00",16.9,18.9,,42.9,-749,171,45,1001.11,43.4,0
"2020-02-02 18:30:53+00",15.2,17.2,,42.8,-663,215,70,1001.11,43.2,0
"2020-02-02 18:35:53+00",18.9,20.9,,42.7,-837,17,34,1000.98,43.2,0
"2020-02-02 18:40:53+00",16.6,18.6,,42.6,-712,-77,31,1000.75,43.2,0
"2020-02-02 18:45:53+00",14.3,17.3,,42.4,-627,205,82,1000.68,43.2,0
"2020-02-02 18:50:53+00",18.0,21.0,,42.2,-791,194,53,1000.57,43,0
"2020-02-02 18:55:53+00",15.9,17.9,,42,-685,-47,77,1000.56,42.9,0
"2020-02-02 19:00:53+00",16.1,18.1,,41.7,-699,-63,77,1000.54,42.8,0
"2020-02-02 19:05:53+00",16.6,18.6,,41.6,-708,-67,39,1000.64,42.5,0
"2020-02-02 19:10:53+00",17.4,20.4,,41.4,-762,-11,56,1000.66,42.3,0
"2020-02-02 19:15:53+00",17.9,20.9,,41.2,-793,42,65,1000.63,42.1,0
"2020-02-02 19:20:53+00",20.6,22.6,,41,-921,126,37,1000.65,41.6,0
"2020-02-02 19:25:53+00",18.0,20.0,,40.5,-797,217,83,1000.37,41.2,0
"2020-02-02 19:30:53+00",9.5,12.5,,39.7,-406,88,43,1000.21,40.6,0
"2020-02-02 19:35:53+00",8.2,9.2,,39.4,-337,154,34,1000,40.1,0
"2020-02-02 19:40:53+00",4.6,5.6,,39.3,-192,49,6,999.79,40,0
"2020-02-02 19:45:53+00",6.5,7.5,,39.4,-281,-22,17,999.91,40.2,0
"2020-02-02 19:50:53+00",8.4,9.4,,39.9,-352,-169,23,1000,40.5,0
"2020-02-02 19:55:53+00",8.4,9.4,,40,-1560,1970,-1129,1000.35,40.8,0
"2020-02-02 20:00:53+00",11.0,13.0,,40.2,-480,13,27,1000.33,41,0
"2020-02-02 20:05:53+00",11.5,14.5,,40.2,-536,-84,-79,1000.45,41.1,0
"2020-02-02 20:10:53+00",12.8,14.8,,40.2,-975,565,-414,1000.44,40.9,0
"2020-02-02 20:15:53+00",12.4,14.4,,40.2,-663,48,-132,1000.47,40.7,0
"2020-02-02 20:20:53+00",13.9,14.9,,40.3,-796,148,-229,1000.63,40.6,0
"2020-02-02 20:25:53+00",15.3,18.3,,40.2,-813,63,-161,1000.75,40.4,0
"2020-02-02 20:30:53+00",14.2,16.2,,40.2,-895,276,-293,1000.88,40.4,0
"2020-02-02 20:35:53+00",17.4,19.4,,40.1,-881,0,-142,1001.09,40.3,0
"2020-02-02 20:40:53+00",16.0,19.0,,40,-820,117,-123,1000.98,40.2,0
"2020-02-02 20:45:53+00",16.1,19.1,,39.9,-759,-91,-73,1000.87,40.1,0
"2020-02-02 20:50:53+00",14.5,16.5,,39.8,-656,-92,-35,1000.71,40.1,0
"2020-02-02 20:55:53+00",16.7,19.7,,39.7,-990,230,-289,1000.69,40,0
"2020-02-02 21:00:53+00",17.4,19.4,,39.3,-915,103,-190,1000.81,39.8,0
"2020-02-02 21:05:53+00",15.8,19.8,,39.2,-1171,639,-509,1000.96,39.6,0
"2020-02-02 21:10:53+00",15.4,18.4,,39.1,-800,117,-163,1000.73,39.5,0
"2020-02-02 21:15:53+00",12.8,13.8,,39,-886,392,-339,1000.59,39.4,0
"2020-02-02 21:20:53+00",12.1,13.1,,38.9,-846,439,-362,1000.57,39.3,0
"2020-02-02 21:25:53+00",12.8,16.8,,39,-1205,958,-649,1000.64,39.2,0
"2020-02-02 21:30:53+00",13.8,15.8,,39,-770,152,-196,1000.83,39.2,0
"2020-02-02 21:35:53+00",14.6,16.6,,39.1,-844,237,-238,1001.01,39.2,0
"2020-02-02 21:40:53+00",12.5,13.5,,39.1,-807,336,-284,1001.06,39.2,0
"2020-02-02 21:45:53+00",12.0,13.0,,39.1,-865,386,-323,1001.07,39.1,0
"2020-02-02 21:50:53+00",10.7,12.7,,39,-722,348,-284,1000.96,39.1,0
"2020-02-02 21:55:53+00",10.3,11.3,,39.1,-668,256,-240,1000.99,39.1,0
"2020-02-02 22:00:53+00",12.4,14.4,,39.2,-632,74,-168,1000.95,39.2,0
"2020-02-02 22:05:53+00",10.2,13.2,,39.2,-562,89,-149,1000.88,39.3,0
"2020-02-02 22:10:53+00",9.3,10.3,,39.2,-499,65,-121,1000.85,39.3,0
"2020-02-02 22:15:53+00",10.7,12.7,,39.2,-1412,1524,-1007,1000.8,39.2,0
"2020-02-02 22:20:53+00",8.0,10.0,,39.2,-666,490,-343,1000.76,39.1,0
"2020-02-02 22:25:53+00",9.1,11.1,,39.2,-1024,996,-672,1000.84,39.1,0
"2020-02-02 22:30:53+00",8.3,9.3,,39.2,-872,813,-546,1000.87,39,0
"2020-02-02 22:35:53+00",8.3,9.3,,39.2,-747,591,-441,1000.89,39,0
"2020-02-02 22:40:53+00",8.2,10.2,,39.4,-738,602,-435,1001.14,39.1,0
"2020-02-02 22:45:53+00",8.1,9.1,,39.4,-887,841,-600,1001.15,39.1,0
"2020-02-02 22:50:53+00",6.4,8.4,,39.4,-732,755,-534,1001.22,39.1,0
"2020-02-02 22:55:53+00",6.5,7.5,,39.4,-920,1055,-715,1001.34,39.1,0
"2020-02-02 23:00:53+00",6.5,7.5,,39.4,-871,1010,-698,1001.32,39.1,0
"2020-02-02 23:05:53+00",5.9,6.9,,39.4,-953,1205,-783,1001.28,39.1,0
"2020-02-02 23:10:53+00",5.5,6.5,,39.4,-1234,1783,-1108,1001.29,39,0
"2020-02-02 23:15:53+00",4.6,5.6,,39.4,-1188,1809,-1102,1001.26,39,0
"2020-02-02 23:20:53+00",5.3,6.3,,39.4,-1612,2503,-1504,1001.24,39,0
"2020-02-02 23:25:53+00",3.9,4.9,,39.3,-980,1459,-894,1001.15,39,0
"2020-02-02 23:30:53+00",4.4,5.4,,39.4,-970,1420,-885,1001.3,39,0
"2020-02-02 23:35:53+00",4.9,5.9,,39.4,-1393,2156,-1310,1001.38,39.1,0
"2020-02-02 23:40:53+00",4.3,5.3,,39.5,-1389,2146,-1284,1001.3,39.1,0
"2020-02-02 23:45:53+00",4.2,5.2,,39.5,-1339,2114,-1267,1001.18,39.1,0
"2020-02-02 23:50:53+00",4.2,5.2,,39.5,-936,1410,-871,1001.14,39.1,0
"2020-02-02 23:55:53+00",3.8,3.8,,39.5,-858,1315,-811,1001.21,39.1,0
